STARLINK-34324, 64207

Orbit data source: Space-Track

STARLINK-34324, 64207 is a payload satellite owned by SpaceX/Seattle (US) in LEO that was launched on Sat, 31 May 2025 UTC via an FALCON 9 launch vehicle from the Air Force Western Test Range (AFWTR). Payload-class satellites include a variety of spacecraft equipped with specific instruments for various scientific and technological missions. These include communications satellites like Starlink; space stations such as the ISS; scientific satellites like the Hubble; Earth observation satellites from companies like Planet Labs, Umbra, and HawkEye 360; GPS; miniature CubeSats for education and research; and military/defense satellites.

Loading next visibility...
Identifier
64207, 2025-117E
Orbit
LEO
Last TLE update
10 hours ago
Origin
Manufacturer
SpaceX/Seattle
Mission
Operational Commercial Communications
Bus & Motor
STARLINK V2MO, Unknown motor
Mass
575 kg wet, ~530 kg dry
Launch date (UTC)
2025-05-31 (2 months ago)
Launch vehicle
FALCON 9
Launch site
Air Force Western Test Range (AFWTR)
Object type
Payload
Rocket body
Debris
Shape & HBR
Box + 1 Pan, 14.5 m
Radar Cross Section
41.120 m², Large (>1 m²)

Expand to show TLE details & history

TLE from 10 hours ago
0 STARLINK-34324
1 64207U 25117E   25199.95709686  .00033454  00000-0  84237-3 0  9997
2 64207  53.1606  47.8711 0000528 100.5445 259.5619 15.39630695  7678
Epoch: 2025-07-18T22:58Z
TLE epoch observation values (Epoch: 2025-07-18T22:58:13.168Z)
Latitude
-0.00006°
Longitude
126.31508°
Altitude
448.169 km
Speed
7.645 km/s
True Right ascension
03h 11m 29s
True Declination
0° 00' 00"
Sunlit
Object was in daylight at epoch
Visualization orbit readout
Latitude
-11.9709°
Longitude
-46.59753°
Altitude
450.356 km
Speed
7.643 km/s
Apparent Right ascension
13h 21m 35s
Apparent Declination
-32° 28' 56"
Sunlit
Object is in full shadow
Visualization observer readout
Local Sidereal Time
21:58:50
Azimuth
263.968° W
Elevation
-48.983°
Doppler factor
1
Orbital elements
Apogee altitude
447.818 km
Perigee altitude
447.098 km
Semi-major axis
6,825.595 km
Eccentricity
0.00005
Inclination
53.1606°
RAAN
47.8711°
Arg. of periapsis
100.5445°
True anomaly
259.55595°
Mean anomaly
259.5619°
Eccentric anomaly
259.55892°
Mean motion
3.84886 °/min
Orbital period
93.53 mins
BSTAR
0.00084237
Loading maneuver chart data...
Loading SW <> Apogee altitude chart data...
Loading historical data...
Loading historical data...
Loading historical data...
Loading historical data...
Loading historical data...
Loading historical data...
Loading historical data...
|